Location: Lafig�re
(44.4503°N, 4.0357°E)
Time: 22:11:42
(UTC+00:00)

Cosmos 1092 Rocket - Pass Details

Date: 31 January 2021
Orbit: 954 x 995 km, 83.0° (Epoch: 07 March)

Event Time Altitude Azimuth Distance (km) Brightness Sun altitude
Rises 06:11:31 0° 336° (NNW) 3,649 6.6 -9.6°
Reaches altitude 10° 06:14:54 10° 318° (NW) 2,703 5.8 -9.0°
Maximum altitude 06:18:41 17° 280° (W) 2,226 5.3 -8.3°
Drops below altitude 10° 06:22:28 10° 241° (WSW) 2,707 5.9 -7.7°
Sets 06:25:53 0° 223° (SW) 3,656 6.7 -7.1°
